Other Public Products
Issued by NWS Grand Forks, ND

Home | Current Version | Previous Version | Graphics & Text | Print | Product List | Glossary On
Versions: 1 2 3 4 5 6 7 8 9 10 11 12 13 14 15 16 17 18 19 20 21 22 23 24 25 26 27 28 29 30 31 32 33 34 35 36 37 38 39 40 41 42 43 44 45 46 47 48 49 50
000
FPUS83 KFGF 030410
OPUFGF
PRAIRIE TO PINES WEATHER ROUNDUP
NATIONAL WEATHER SERVICE EASTERN NORTH DAKOTA/GRAND FORKS ND
1000 PM CST MON MAR 02 2015

 **SATELLITE DATA USED TO AUGMENT SKY COVER AT AUTOMATED STATIONS**
 *****  WEATHER ACROSS EASTERN NORTH DAKOTA  *****

CITY           SKY/WX    TMP DP  RH WIND       PRES   REMARKS
GRAND FORKS    FAIR      25  18  74 S20       29.80F WCI  11
GRAND FORKS AF FAIR      25  17  74 S15       29.78F WCI  12
GRAND CITY NWS   N/A     25 N/A N/A S30         N/A  WCI   8
BUXTON         NOT AVBL
DEVILS LAKE    FAIR      25  18  74 SW7       29.71F WCI  17
FARGO          FAIR      27  17  66 S25G35    29.83F WCI  12
WAHPETON ARPT  CLOUDY    27  19  74 S21G26    29.88F WCI  13
$$

 *****  WEATHER ACROSS CENTRAL AND WESTERN NORTH DAKOTA  *****

CITY           SKY/WX    TMP DP  RH WIND       PRES   REMARKS
JAMESTOWN      FAIR      26  18  71 S15       29.73F WCI  14
BISMARCK       FAIR      27  23  85 NW6       29.74R WCI  20
MINOT          FLURRIES  18  11  74 W26G33    29.81R WCI  -1
MINOT AFB      FAIR      18  14  86 NW25G35   29.79R WCI  -1
GARRISON         N/A     19  13  77 NW30G41   29.79R WCI   0
WILLISTON      FLURRIES  17   9  70 N23G29    29.93R WCI  -1
DICKINSON      CLOUDY    23  16  74 NW28G35   29.78R WCI   6
HETTINGER      FAIR      31  16  54 N20G25    29.73R WCI  19
$$

 *****  OTHER OBSERVATIONS NORTHEAST NORTH DAKOTA  *****

CITY           SKY/WX    TMP DP  RH WIND       PRES   REMARKS
WALHALLA         N/A     23  19  86 S7        29.73F WCI  15
LANGDON        NOT AVBL
CAVALIER       FAIR      23  18  80 S13       29.74F WCI  11
GRAFTON        NOT AVBL
CANDO          FAIR      16  14  93 SW8       29.71S WCI   5
FORT TOTTEN      N/A     24  19  80 S8        29.95  WCI  15
ROLLA          FAIR      23  18  80 W12       29.70S WCI  12
RUGBY          FAIR      19  18  93 NW22      29.73S WCI   3
 ***** THE ABOVE OBSERVATIONS ARE NON NWS ARE NOT QUALITY
        CONTROLLED AND MAY MIS-REPORT RAIN FOR SNOW...
$$

 *****  OTHER OBSERVATIONS SOUTHEAST NORTH DAKOTA *****

CITY           SKY/WX    TMP DP  RH WIND       PRES   REMARKS
COOPERSTOWN    NOT AVBL
VALLEY CITY    FAIR      27  23  86 S18       29.76F WCI  13
OAKES            N/A     27  21  80 S18G26    29.78F WCI  13
GWINNER        CLEAR     30  21  69 S16       29.82F WCI  19
SHEYENNE NWR     N/A     26  19  73 S14       29.95  WCI  14
BUFFALO        NOT AVBL
WYNDMERE         N/A     27  19  74 S14         N/A  WCI  15
 ***** THE ABOVE OBSERVATIONS ARE NON NWS ARE NOT QUALITY
       CONTROLLED AND MAY MIS-REPORT RAIN FOR SNOW...
$$

  *****  WEATHER ACROSS NORTHERN MINNESOTA  *****

CITY           SKY/WX    TMP DP  RH WIND       PRES   REMARKS
FLAG ISLAND    CLOUDY    19  12  73 S16       29.78F WCI   5
WARROAD        MOCLDY    27  16  63 S13G20    29.79F WCI  16
ROSEAU         FAIR      25  16  68 S21       29.78F WCI  10
HALLOCK        NOT AVBL
THF RVR FALLS  FAIR      25  18  74 S16       29.81F WCI  12
HALSTAD        NOT AVBL
FOSSTON        CLOUDY    23  16  74 S21G28    29.82F WCI   8
BAUDETTE       CLOUDY    24  10  55 S14G24    29.81F WCI  12
WASKISH        CLOUDY    25  12  58 S10G22    29.85F WCI  15
CROOKSTON      FAIR      25  18  74 S23G29    29.83F WCI  10
$$
  *****  WEATHER ACROSS CENTRAL AND WEST MINNESOTA  *****

CITY           SKY/WX    TMP DP  RH WIND       PRES   REMARKS
BEMIDJI        CLOUDY    23  13  64 S15G21    29.87F WCI  10
PARK RAPIDS    CLOUDY    23  13  65 S21G26    29.91F WCI   8
WADENA         CLOUDY    21  14  73 S14G20    29.93F WCI   8
DETROIT LAKES  FAIR      27  19  74 S18G25    29.88F WCI  13
MOORHEAD       FAIR      27  19  74 S24G33    29.85F WCI  12
FERGUS FALLS   CLOUDY    25  16  68 S23G29    29.94F WCI  10
ELBOW LAKE     CLOUDY    23  19  83 S22G29    29.91F WCI   8
MORRIS MN      CLOUDY    25  19  80 SE23G29   29.93F WCI  10
STAPLES        CLOUDY    21  12  68 S10G20    29.96F WCI  10
WHEATON        CLOUDY    25  19  80 SE23      29.91F WCI  10
$$
  *****  WEATHER ELSEWHERE ACROSS MINNESOTA  *****

CITY           SKY/WX    TMP DP  RH WIND       PRES   REMARKS
DULUTH         MOCLDY    20   5  52 S12       30.01F WCI   8
INTRNTL FALLS  CLOUDY    23   7  50 S12G23    29.87F WCI  12
ELY            CLOUDY    19   3  49 S12       29.98F WCI   7
CLOQUET        CLOUDY    21   3  45 S8        30.03F WCI  12
BRAINERD       CLOUDY    21  10  62 S16       29.99F WCI   7
HIBBING        CLOUDY    21   5  50 S9        29.98F WCI  11
ALEXANDRIA     CLOUDY    22  16  78 S15       29.96F WCI   9
SAINT CLOUD    CLOUDY    22  11  62 SE10      30.05F WCI  11
MINNEAPOLIS    CLOUDY    21  11  65 SE10      30.12F WCI  10
$$

  *****  WEATHER ACROSS SOUTH DAKOTA  *****

CITY           SKY/WX    TMP DP  RH WIND       PRES   REMARKS
SIOUX FALLS    CLOUDY    28  20  71 SE10G24   29.92F WCI  19
BROOKINGS      NOT AVBL
WATERTOWN      CLOUDY    27  21  78 S22G31    29.84F WCI  13
HURON          CLOUDY    31  21  66 SE13G25   29.82F WCI  21
SISSETON         N/A     27  20  75 S20       29.86F WCI  13
ABERDEEN       FAIR      29  20  69 S22G30    29.80F WCI  15
MITCHELL       FAIR      32  21  64 SE18      29.87F WCI  20
PIERRE         CLOUDY    37  17  44 SE10      29.72F
MOBRIDGE       FAIR      35  19  52 S12       29.68F
RAPID CITY     CLOUDY    37  20  50 N14       29.68R
$$

  *****  SOME WEATHER IN NEARBY STATES *****

CITY           SKY/WX    TMP DP  RH WIND       PRES   REMARKS
GLASGOW MT     CLOUDY    18   8  65 NW20      30.01R WCI   2
GREAT FALLS MT LGT SNOW  17  14  88 NE9       30.06S FOG     WCI   6
CHEYENNE WY    CLOUDY    32  24  72 W7        29.58R
SCOTTSBLUFF NE FAIR      29  24  82 E7        29.66R WCI  22
OMAHA NE       CLOUDY    33  19  56 SE21      29.99F WCI  21
DES MOINES IA  CLOUDY    29  18  63 SE12      30.11F WCI  19
DAVENPORT IA   CLOUDY    26  17  68 SE12      30.23F WCI  16
CHICAGO IL     CLOUDY    25  15  66 S8        30.29F WCI  16
EAU CLAIRE WI  CLOUDY    23   7  50 S8        30.15F WCI  14
LA CROSSE WI   CLOUDY    26  14  60 S9        30.20F WCI  17
$$

  *****  SOME NATIONAL WEATHER *****

CITY           SKY/WX    TMP DP  RH WIND       PRES   REMARKS
LA GUARDIA NY  FAIR      29  11  47 NW15G22   30.36R WCI  18
RALEIGH NC     FAIR      38  25  59 CALM      30.35R
ATLANTA GA     MOCLDY    54  46  76 N3        30.25F
NEW ORLEANS LA CLOUDY    66  64  93 CALM      30.20S FOG
OKLAHOMA CITY  FOG       37  34  89 S14       30.08F VSB 1
ALBUQUERQUE NM CLOUDY    51  42  71 S20G31    29.91R
SALT LAKE CITY LGT RAIN  34  33  96 NW9       29.75R
LOS ANGELES CA FAIR      55  44  66 E5        29.96R
BOISE ID       CLOUDY    42  23  46 NW20G25   29.77R
SEATTLE WA     FAIR      43  30  60 N8        30.08R
$$

*** WEATHER ACROSS MANITOBA...SASKATCHEWAN AND ONTARIO ***
                ***ONTARIO***

CITY           SKY/WX    TMP DP  RH WIND       PRES   REMARKS
GERALDTON      PTCLDY     7   0  72 SW7       30.03F WCI  -5
THUNDER BAY    PTCLDY     5   3  92 CALM      30.08F
SIOUX LOOKOUT  MOCLDY    16   1  53 S8        29.85F WCI   5
TORONTO        CLEAR     16   7  67 SW5       30.40S WCI   9
BIG TROUT LK   CLEAR      7  -4  61 S8        29.75F WCI  -6
PICKLE LAKE    NOT AVBL
DRYDEN         CLOUDY    19   7  58 S14G21    29.82F WCI   6
KENORA         CLOUDY    21   7  53 S17G23    29.77F WCI   7
$$
                *** MANITOBA***

CITY           SKY/WX    TMP DP  RH WIND       PRES   REMARKS
BRANDON        CLOUDY    19  12  73 NW23G32   29.72R WCI   2
DAUPHIN        LGT SNOW  19  18  93 NW10      29.73R WCI   8
ISLAND LAKE    PTCLDY    21   9  58 SW10G22   29.62F WCI  10
PILOT MOUND      N/A     18  14  86 SW12        N/A  WCI   5
THE PAS        LGT SNOW   9   3  78 N18G29    29.80R DRFTSNOWWCI -10
THOMPSON       LGT SNOW   7   0  72 NW14G28   29.66R WCI -10
WINNIPEG       MOCLDY    23  16  74 S21G29    29.71F WCI   8
LYNN LAKE      LGT SNOW  -6 -13  71 NW22G32   29.82R WCI -31
CHURCHILL      LGT SNOW  -6 -11  77 E16       29.81R WCI -28
GILLAM         LGT SNOW  16  14  93 N2        29.57F
$$
                ***SASKATCHEWAN***

CITY           SKY/WX    TMP DP  RH WIND       PRES   REMARKS
ESTEVAN        FLURRIES  12   9  85 NW28G38   29.86R WCI  -9
KINDERSLEY     PTCLDY     3  -2  78 NW14      30.12R WCI -15
LLOYDMINSTER   PTCLDY     1  -6  71 NW13      30.14R WCI -16
PRINCE ALBERT  MOCLDY     1 -11  55 NW15G24   30.03R WCI -18
REGINA         FLURRIES   9   1  72 NW24G36   29.97R WCI -12


USA.gov is the U.S. government's official web portal to all federal, state and local government web resources and services.